Location: Taukkyan
(23.1052°N, 94.0030°E)
Time: 21:38:00
(UTC+00:00)

Cosmos 2263 Rocket - Pass Details

Date: 06 July 2020
Orbit: 825 x 847 km, 71.0° (Epoch: 05 August)

Event Time Altitude Azimuth Distance (km) Brightness Sun altitude
Rises 15:10:59 0° 316° (NW) 3,357 6.5 -30.3°
Reaches altitude 10° 15:14:22 10° 295° (WNW) 2,423 5.3 -30.8°
Maximum altitude 15:17:33 16° 260° (W) 2,049 4.5 -31.3°
Enters shadow 15:19:24 14° 237° (WSW) 2,181 4.4 -31.6°
